Regional Weather Roundup
Issued by NWS

Home | Current Version | Previous Version | Graphics & Text | Print | Product List | Glossary On
Versions: 1 2 3 4 5 6 7 8 9 10 11 12 13 14 15 16 17 18 19 20 21 22 23 24 25 26 27 28 29 30 31 32 33 34 35 36 37 38 39 40 41 42 43 44 45 46 47 48 49 50
000
ASUS43 KFSD 201402
RWRSD

WEATHER ROUNDUP FOR SOUTH DAKOTA
NATIONAL WEATHER SERVICE SIOUX FALLS SD
900 AM CDT WED SEP 20 2017

NOTE: "FAIR" INDICATES FEW OR NO CLOUDS BELOW 12,000 FEET WITH NO
SIGNIFICANT WEATHER AND/OR OBSTRUCTIONS TO VISIBILITY.


SDZ001>005-009-010-012>017-201500-
NORTHWEST AND NORTH CENTRAL SOUTH DAKOTA

CITY           SKY/WX    TMP DP  RH WIND       PRES   REMARKS
BUFFALO          N/A     44  39  82 SW10      29.69R
MOBRIDGE       SUNNY     49  45  86 SE7       29.76S
$$

SDZ012>016-024>037-041>051-057-063-072>074-201500-
SOUTHWEST AND SOUTH CENTRAL SOUTH DAKOTA

CITY           SKY/WX    TMP DP  RH WIND       PRES   REMARKS
RAPID CTY ARPT SUNNY     43  37  81 E5        29.80S
PIERRE         SUNNY     50  42  74 SW6       29.81S
CUSTER         SUNNY     40  26  57 SW8G17    29.86R
ELLSWORTH AFB  SUNNY     43  37  79 SE6       29.80R
PHILIP         SUNNY     47  45  93 CALM      29.82F
SPEARFISH      FAIR      50  28  43 W9G16     29.80S
WINNER         FAIR      53  46  77 SW6       29.86R
$$

SDZ004>011-016>023-039-040-201500-
NORTHEAST SOUTH DAKOTA

CITY           SKY/WX    TMP DP  RH WIND       PRES   REMARKS
ABERDEEN       SUNNY     49  45  86 W12       29.79R
WATERTOWN      SUNNY     53  48  83 W16G22    29.78R
BROOKINGS      MOSUNNY   55  49  80 NW13G22     N/A
SISSETON         N/A     56  47  71 W21G29    29.73R
$$

SDZ017-020-022-023-036>040-048>070-201500-
SOUTHEAST SOUTH DAKOTA

CITY           SKY/WX    TMP DP  RH WIND       PRES   REMARKS
SIOUX FALLS    MOSUNNY   58  52  80 NW8       29.81R
HURON          SUNNY     54  47  77 W10       29.82R
CHAMBERLAIN    SUNNY     55  49  81 SW7       29.85S
MITCHELL       SUNNY     56  50  80 W10       29.84R
YANKTON        SUNNY     57  50  77 W14       29.83R
$$

ABBREVIATIONS USED IN REMARKS
   TC - TEMPERATURE IN CELSIUS
  WCI - WIND CHILL INDEX
   HX - HEAT INDEX
  VSB - VISIBILITY





USA.gov is the U.S. government's official web portal to all federal, state and local government web resources and services.